AYAME 2 DEB

基本信息
目录编号:
38684
目录名称:
AYAME 2 DEB
国际标识:
1980-018E
轨道中心:
EARTH
物体状态:
在轨
发射日期:
1980-02-22 UTC
轨道信息
数据来源: 国际轨道数据
星历时间: 2026-07-12T21:52:38+0800
半长轴: 28830.735km
偏心率: 0.4511868
轨道倾角: 10.057°
近地点辐角: 49.944°
升交点赤经: 343.352°
平近点角: 341.798°
近地点: 9444.55km
远地点: 35460.646km
周期: 811.976分钟
每日圈数: 1.773451
详细信息
发射场:
TNSTA
轨道高度:
MEO
数据来源:
AOE Integration Group
参考系:
TEME
时间系统:
UTC
历元类型:
SGP4
2D轨道图
3D轨道图
轨道高度分析图
轨道倾角分析图
轨道综合分析图
查看轨道综合分析图